Location: Karcze
(52.0945°N, 22.4786°E)
Time: 12:51:10
(UTC+00:00)

Cosmos 921 Rocket - Pass Details

Date: 14 July 2020
Orbit: 572 x 632 km, 75.8° (Epoch: 07 August)

Event Time Altitude Azimuth Distance (km) Brightness Sun altitude
Rises 00:27:23 0° 339° (NNW) 2,911 7.2 -12.4°
Reaches altitude 10° 00:29:41 10° 341° (NNW) 1,992 6.3 -12.2°
Maximum altitude 00:34:07 73° 67° (ENE) 644 3.3 -11.9°
Drops below altitude 10° 00:38:27 10° 152° (SSE) 1,939 5.3 -11.6°
Enters shadow 00:40:27 - 154° (SSE) 2,748 6.0 -11.4°
